Regional Weather Roundup
Issued by NWS Grand Forks, ND

Home | Current Version | Previous Version | Graphics & Text | Print | Product List | Glossary On
Versions: 1 2 3 4 5 6 7 8 9 10 11 12 13 14 15 16 17 18 19 20 21 22 23 24 25 26 27 28 29 30 31 32 33 34 35 36 37 38 39 40 41 42 43 44 45 46 47 48 49 50
000
ASUS43 KFGF 220531
RWRFGF
PRAIRIE TO PINES  WEATHER ROUNDUP
NATIONAL WEATHER SERVICE EASTERN NORTH DAKOTA/GRAND FORKS ND
1200 AM CDT SAT JUL 22 2017

 **SATELLITE DATA USED TO AUGMENT SKY COVER AT AUTOMATED STATIONS**
 *****  WEATHER ACROSS EASTERN NORTH DAKOTA  *****

CITY           SKY/WX    TMP DP  RH WIND       PRES   REMARKS
GRAND FORKS    FAIR      72  72 100 CALM      29.75R
GRAND FRKS AFB MOCLDY    71  71 100 S3        29.76R
DEVILS LAKE    TSTM      66  64  94 NE7       29.82R
FARGO          FAIR      73  68  84 S9        29.76F
WAHPETON ARPT  FAIR      72  66  83 SE3       29.77R
$$

 ***** WEATHER ACROSS CENTRAL AND WESTERN NORTH DAKOTA  *****

CITY           SKY/WX    TMP DP  RH WIND       PRES   REMARKS
BISMARCK       FAIR      65  61  87 W5        29.84F
MINOT          FAIR      65  62  90 CALM      29.85R
JAMESTOWN      FAIR      73  64  73 S8        29.80F
MINOT AFB      FAIR      64  62  92 CALM      29.83R
GARRISON         N/A     63  59  87 N7        29.86R
WILLISTON      FAIR      70  46  42 E3        29.89R
DICKINSON      FAIR      68  40  35 NW9       29.89S
HETTINGER      FAIR      64  45  49 VRB5      29.92F
$$

 *****  OTHER AIRPORT OBSERVATIONS IN OUR AREA  *****

CITY           SKY/WX    TMP DP  RH WIND       PRES   REMARKS
WALHALLA       NOT AVBL
GRAFTON AIRPOR FAIR      66  66 100 NE6       29.77F
VALLEY CITY AR FAIR      68  68 100 S8        29.82S
CANDO          NOT AVBL
CAVALIER APRT  FAIR      66  64  94 VRB6      29.75F
GWINNER        CLOUDY    70  66  88 SE16G26   29.79F FOG
SHEYENNE NWR     N/A     74  69  85 N3        29.95S
ROLLA            N/A     68  70 100 SW9       29.81R
 ***** THE ABOVE OBSERVATIONS ARE NON NWS ARE NOT QUALITY
       CONTROLLED AND MAY MIS-REPORT RAIN FOR SNOW...
$$

  *****  WEATHER ACROSS NORTHERN MINNESOTA  *****

CITY           SKY/WX    TMP DP  RH WIND       PRES   REMARKS
FLAG ISLAND    FAIR      66  57  72 NE7       29.81S
WARROAD        FAIR      66  63  88 E6        29.82R
ROSEAU         FAIR      63  57  82 E5        29.80S
HALLOCK        FAIR      66  63  88 E3        29.77F
THF RVR FALLS  FAIR      65  64  97 E3        29.79S
BAUDETTE       FAIR      59  58  96 CALM      29.81F
WASKISH        NOT AVBL
CROOKSTON      FAIR      68  66  94 CALM      29.76F
STEPHEN NDAWN    N/A     66  64  94 E3          N/A
GREENBUSH NDAW   N/A     63  63 100 NE2         N/A
$$
  *****  WEATHER ACROSS CENTRAL AND WEST MINNESOTA  *****

CITY           SKY/WX    TMP DP  RH WIND       PRES   REMARKS
FOSSTON        FAIR      61  61 100 CALM      29.78F
BEMIDJI        FOG       60  60  99 NE5       29.78F VSB 3/4
PARK RAPIDS    FAIR      67  64  90 S3        29.79F
ELBOW LAKE     FAIR      66  65  94 E9        29.79F
WADENA         FAIR      64  64 100 S8        29.79F
DETROIT LAKES  FAIR      68  64  88 S8        29.80R
MOORHEAD       FAIR      72  66  83 S5        29.78R
FERGUS FALLS   FAIR      70  68  94 E3G9      29.78R
MORRIS MN      FAIR      70  66  88 SE7       29.79S
STAPLES        FAIR      64  64 100 CALM      29.80F
$$
  *****  WEATHER ELSEWHERE ACROSS MINNESOTA  *****

CITY           SKY/WX    TMP DP  RH WIND       PRES   REMARKS
DULUTH         FAIR      61  61 100 CALM      29.82S
INTRNTL FALLS  FAIR      55  54  96 CALM      29.83F FOG
ELY            FAIR      61  57  88 NE3       29.85S
CLOQUET        FAIR      63  59  88 CALM      29.81F
WHEATON        FAIR      72  64  78 SE7       29.78S
BRAINERD       FAIR      65  64  97 S3        29.79F
HIBBING        MOCLDY    57  57 100 CALM      29.84R FOG
ALEXANDRIA     FAIR      68  66  93 SE5       29.81F
SAINT CLOUD    MOCLDY    66  66 100 SE13      29.78F
MINNEAPOLIS    CLOUDY    75  65  70 NE10G21   29.85F
$$

  *****  WEATHER ACROSS SOUTH DAKOTA  *****

CITY           SKY/WX    TMP DP  RH WIND       PRES   REMARKS
SIOUX FALLS    FAIR      76  75  97 E7        29.78S
BROOKINGS      FAIR      76  72  87 E9        29.81R
WATERTOWN      LGT RAIN  76  72  87 NE5       29.80R
HURON          TSTM      68  67  96 NW24G48   29.92R FOG
SISSETON         N/A     75  70  84 N10       29.79F
ABERDEEN       FAIR      70  64  81 SE10      29.78S
MITCHELL       FAIR      76  74  93 E6        29.75R
PIERRE         FAIR      76  67  73 N9        29.77S
MOBRIDGE       FAIR      73  67  81 CALM      29.80R
RAPID CITY     FAIR      74  43  32 N10       29.94F
$$

  *****  SOME WEATHER IN NEARBY STATES *****

CITY           SKY/WX    TMP DP  RH WIND       PRES   REMARKS
GLASGOW MT     FAIR      70  34  26 N12       29.94R
GREAT FALLS MT FAIR      65  29  25 NW3       30.08R
CHEYENNE WY    CLOUDY    62  56  80 S5        30.21F
SCOTTSBLUFF NE FAIR      76  50  40 W7        30.05R
OMAHA NE       MOCLDY    90  71  53 S7        29.72R HX  96
DES MOINES IA  FAIR      88  75  65 S14       29.71F HX  97
DAVENPORT IA   FAIR      75  71  87 SE9       29.80F
CHICAGO IL     TSTM      75  71  87 SE6       29.85F
EAU CLAIRE WI  MOCLDY    71  65  81 NW5       29.85F
LA CROSSE WI   CLOUDY    73  70  90 CALM      29.82S
$$

  *****  SOME NATIONAL WEATHER *****

CITY           SKY/WX    TMP DP  RH WIND       PRES   REMARKS
LA GUARDIA NY  MOCLDY    88  71  57 W13       29.85F HX  94
RALEIGH NC     MOCLDY    79  73  82 SW6       29.99S
ATLANTA GA     FAIR      79  71  76 SW7       30.04S
NEW ORLEANS LA MOCLDY    82  77  84 E3        30.00S HX  90
OKLAHOMA CITY  FAIR      84  69  60 S12       29.94R
ALBUQUERQUE NM FAIR      78  52  40 S10       30.16R
SALT LAKE CITY FAIR      83  53  35 SE6       30.01R
LOS ANGELES CA FAIR      68  63  84 SW7       29.90R
BOISE ID       FAIR      77  41  27 SW5       30.00R
SEATTLE WA     MOCLDY    65  52  62 NW3       30.15R
$$

*** WEATHER ACROSS MANITOBA...SASKATCHEWAN AND ONTARIO ***
                ***ONTARIO***

CITY           SKY/WX    TMP DP  RH WIND       PRES   REMARKS
GERALDTON      PTCLDY    55  45  67 E6        29.95S
THUNDER BAY    CLOUDY    63  57  82 E7        29.85F
SIOUX LOOKOUT  CLOUDY    64  48  55 E5        29.88S
TORONTO        MOCLDY    70  59  68 W6        29.94R
BIG TROUT LK   CLEAR     52  45  76 VRB2      29.92S
PICKLE LAKE    NOT AVBL
DRYDEN         CLOUDY    63  61  94 NE5       29.88S
KENORA         MOCLDY    61  59  94 NE7       29.84F
$$
                *** MANITOBA***

CITY           SKY/WX    TMP DP  RH WIND       PRES   REMARKS
BRANDON        PTCLDY    64  63  94 SE14      29.76F
DAUPHIN        TSTM      64  63  94 VRB7      29.80R FOG
ISLAND LAKE    NOT AVBL
PILOT MOUND      N/A     66  63  88 SE8         N/A
THE PAS        CLOUDY    63  45  51 E5        29.87F
THOMPSON       CLEAR     48  43  81 CALM      29.92R
WINNIPEG       CLOUDY    66  61  82 E12       29.76F
LYNN LAKE      CLEAR     55  43  62 NE2       29.92S
CHURCHILL      PTCLDY    54  46  76 S9        29.92S
GILLAM         PTCLDY    57  46  67 E6        29.93S
$$
                ***SASKATCHEWAN***

CITY           SKY/WX    TMP DP  RH WIND       PRES   REMARKS
ESTEVAN        PTCLDY    61  52  72 W18       29.86S
KINDERSLEY     PTCLDY    54  50  87 NW6       29.93R
LLOYDMINSTER   CLEAR     55  54  94 W6        29.92R
PRINCE ALBERT  CLOUDY    57  57 100 NE5       29.90R
REGINA         PTCLDY    61  57  88 NW10      29.91
YORKTON        LGT RAIN  57  55  94 NW12      29.86R
N. BATTLEFORD  CLEAR     55  54  94 E5        29.91S
LA RONGE       MOCLDY    57  57 100 VRB3      29.91R
SASKATOON      MOCLDY    57  55  94 W3        29.89F
SWIFT CURRENT  CLOUDY    64  46  52 W12       29.95R
$$
NOTE: THESE ARE AUTOMATED STATIONS WITH LIMITED QUALITY CONTROL
      "FAIR" INDICATES FEW OR NO CLOUDS BELOW 12,000 FEET WITH NO
      SIGNIFICANT WEATHER AND/OR OBSTRUCTIONS TO VISIBILITY.
      SKY/WX - SKY CONDITION AND SIGNIFICANT WEATHER.
      TMP - AIR TEMPERATURE.    DP   - DEWPOINT TEMPERATURE.
      RH  - RELATIVE HUMIDITY.  PRES - PRESSURE.
      HX  - HEAT INDEX.         WCI  - WIND CHILL INDEX.
$



USA.gov is the U.S. government's official web portal to all federal, state and local government web resources and services.